Buffalo, MN

10:25 PM CST on January 19, 2018 (GMT -0600)
Buffalo

Weather History for KCFE - December, 2013

Change the Weather History Date:

Sunday, December 22, 2013

  Actual Average (KMIC) Record (KMIC)
Temperature  
Mean Temperature 8 °F -  
Max Temperature 14 °F 24 °F 39 °F (2001)
Min Temperature 2 °F 9 °F -13 °F (2008)
Degree Days  
Heating Degree Days 57    
Moisture  
Dew Point 6 °F    
Average Humidity 82    
Maximum Humidity 86    
Minimum Humidity 78    
Precipitation  
Precipitation 0.00 in - - ()
Sea Level Pressure  
Sea Level Pressure 30.07 in    
Wind  
Wind Speed 7 mph (WNW)    
Max Wind Speed 12 mph    
Max Gust Speed 17 mph    
Visibility 7 miles    
Events Snow    
Averages and records for this station are not official NWS values.
T = Trace of Precipitation, MM = Missing Value Source: NWS Daily Summary

Daily Weather History Graph

Daily Weather History Graph

Search for Another Location

Airport or City:

Trip Planner

Search our weather history database for the weather conditions in past years. The results will help you decide how hot, cold, wet, or windy it might be!

Date:

Astronomy

Dec. 22, 2013 Rise Set
Actual Time 7:51 AM CST 4:36 PM CST
Civil Twilight 7:17 AM CST 5:10 PM CST
Nautical Twilight 6:40 AM CST 5:48 PM CST
Astronomical Twilight 6:04 AM CST 6:23 PM CST
Moon 10:03 PM CST (12/22) 10:36 AM CST (12/22)
Length of Visible Light 9h 52m
Length of Day
8h 44m
Waning Gibbous, 76% of the Moon is Illuminated
Dec 22
Waning Gibbous
Dec 25
Last Quarter
Jan 1
New
Jan 7
First Quarter
Jan 15
Full

Hourly Weather History & Observations

Time (CST) Temp. Windchill Dew Point Humidity Pressure Visibility Wind Dir Wind Speed Gust Speed Precip Events Conditions
12:16 AM 12.0 °F 4.1 °F 8.4 °F 85% 29.97 in 10.0 mi NW 4.6 mph - N/A   Overcast
12:36 AM 11.3 °F 3.3 °F 7.7 °F 85% 29.96 in 10.0 mi NW 4.6 mph - N/A   Overcast
12:55 AM 11.3 °F 3.3 °F 7.7 °F 85% 29.96 in 10.0 mi WNW 4.6 mph - N/A   Overcast
1:16 AM 11.8 °F 2.5 °F 8.1 °F 85% 29.96 in 10.0 mi WNW 5.8 mph - N/A   Overcast
1:36 AM 12.2 °F 2.9 °F 8.2 °F 84% 29.97 in 10.0 mi NW 5.8 mph - N/A   Overcast
1:55 AM 12.4 °F 2.0 °F 8.6 °F 85% 29.97 in 10.0 mi NW 6.9 mph - N/A   Overcast
2:16 AM 12.9 °F 2.6 °F 8.6 °F 83% 29.97 in 10.0 mi NW 6.9 mph - N/A   Overcast
2:36 AM 13.1 °F 1.8 °F 9.0 °F 84% 29.97 in 10.0 mi NW 8.1 mph - N/A   Overcast
2:55 AM 13.6 °F 3.5 °F 9.3 °F 83% 29.98 in 10.0 mi NW 6.9 mph - N/A   Overcast
3:16 AM 13.8 °F 4.9 °F 9.3 °F 82% 30.00 in 10.0 mi NW 5.8 mph - N/A   Overcast
3:36 AM 13.8 °F 6.2 °F 9.3 °F 82% 29.99 in 10.0 mi NW 4.6 mph - N/A   Overcast
3:55 AM 13.6 °F 3.5 °F 9.3 °F 83% 29.99 in 10.0 mi NW 6.9 mph - N/A Snow Light Snow
4:16 AM 13.6 °F 2.5 °F 9.3 °F 83% 29.98 in 10.0 mi NW 8.1 mph - N/A   Overcast
4:35 AM 13.6 °F 6.0 °F 9.3 °F 83% 29.98 in 10.0 mi NW 4.6 mph - N/A Snow Light Snow
4:56 AM 13.6 °F 4.6 °F 9.5 °F 84% 29.98 in 10.0 mi NW 5.8 mph - N/A Snow Light Snow
5:16 AM 14.0 °F 3.9 °F 9.9 °F 84% 29.98 in 10.0 mi WNW 6.9 mph - N/A Snow Light Snow
5:35 AM 14.0 °F 5.1 °F 10.0 °F 84% 29.98 in 10.0 mi NW 5.8 mph - N/A   Overcast
5:56 AM 14.4 °F 6.9 °F 10.4 °F 84% 29.99 in 10.0 mi NW 4.6 mph - N/A   Overcast
6:15 AM 14.4 °F 1.6 °F 10.4 °F 84% 29.99 in 10.0 mi NW 10.4 mph - N/A   Overcast
6:36 AM 14.5 °F 5.7 °F 10.4 °F 84% 29.99 in 10.0 mi NW 5.8 mph - N/A   Overcast
6:56 AM 14.5 °F 4.6 °F 10.4 °F 84% 29.99 in 10.0 mi NNW 6.9 mph - N/A Snow Light Snow
7:15 AM 14.4 °F 3.3 °F 10.4 °F 84% 30.00 in 10.0 mi NW 8.1 mph - N/A Snow Light Snow
7:36 AM 14.0 °F 2.9 °F 10.0 °F 84% 30.01 in 10.0 mi NNW 8.1 mph - N/A   Overcast
7:56 AM 14.0 °F 3.9 °F 9.9 °F 84% 30.01 in 10.0 mi NW 6.9 mph - N/A   Overcast
8:15 AM 13.5 °F 3.3 °F 9.5 °F 84% 30.01 in 4.0 mi NW 6.9 mph - N/A Snow Light Snow
8:36 AM 13.5 °F 4.4 °F 9.5 °F 84% 30.01 in 2.0 mi NNW 5.8 mph - N/A Snow Light Snow
8:56 AM 13.1 °F 2.8 °F 9.5 °F 86% 30.01 in 4.0 mi NW 6.9 mph - N/A Snow Light Snow
9:15 AM 13.1 °F 2.8 °F 9.3 °F 85% 30.01 in 4.0 mi NW 6.9 mph - N/A Snow Light Snow
9:36 AM 13.3 °F 4.2 °F 9.3 °F 84% 30.02 in 4.0 mi NW 5.8 mph - N/A Snow Light Snow
9:56 AM 13.5 °F 4.4 °F 9.1 °F 83% 30.04 in 5.0 mi NW 5.8 mph - N/A Snow Light Snow
10:15 AM 13.5 °F 3.3 °F 8.8 °F 82% 30.04 in 5.0 mi NW 6.9 mph - N/A Snow Light Snow
10:36 AM 13.6 °F 2.5 °F 8.6 °F 80% 30.05 in 5.0 mi NW 8.1 mph - N/A Snow Light Snow
10:56 AM 13.6 °F 2.5 °F 8.6 °F 80% 30.06 in 3.0 mi NW 8.1 mph - N/A Snow Light Snow
11:15 AM 14.0 °F 5.1 °F 8.6 °F 79% 30.06 in 3.0 mi WNW 5.8 mph - N/A Snow Light Snow
11:28 AM 13.6 °F 1.6 °F 8.4 °F 80% 30.05 in 4.0 mi WNW 9.2 mph - N/A Snow Light Snow
3:07 PM 13.5 °F 0.5 °F 7.7 °F 78% 30.08 in 2.5 mi NW 10.4 mph - N/A Snow Light Snow
3:16 PM 13.1 °F 1.8 °F 7.5 °F 78% 30.08 in 3.0 mi NW 8.1 mph - N/A Snow Light Snow
3:36 PM 12.9 °F 1.6 °F 7.5 °F 79% 30.09 in 3.0 mi West 8.1 mph - N/A Snow Light Snow
3:56 PM 12.2 °F 0.7 °F 6.8 °F 79% 30.11 in 4.0 mi West 8.1 mph - N/A Snow Light Snow
4:16 PM 11.3 °F -1.3 °F 5.9 °F 79% 30.12 in 4.0 mi WNW 9.2 mph - N/A Snow Light Snow
4:35 PM 11.3 °F 0.7 °F 6.1 °F 80% 30.13 in 4.0 mi WNW 6.9 mph - N/A Snow Light Snow
4:56 PM 10.9 °F -0.8 °F 5.9 °F 80% 30.13 in 5.0 mi West 8.1 mph - N/A Snow Light Snow
5:16 PM 10.4 °F -2.4 °F 5.7 °F 81% 30.14 in 7.0 mi West 9.2 mph - N/A Snow Light Snow
5:35 PM 10.0 °F -1.9 °F 5.5 °F 82% 30.15 in 7.0 mi West 8.1 mph - N/A Snow Light Snow
5:56 PM 9.7 °F -3.3 °F 5.0 °F 81% 30.16 in 10.0 mi West 9.2 mph - N/A   Overcast
6:16 PM 9.1 °F -3.0 °F 4.3 °F 81% 30.16 in 10.0 mi West 8.1 mph - N/A Snow Light Snow
6:36 PM 8.6 °F -3.7 °F 3.7 °F 81% 30.16 in 7.0 mi West 8.1 mph - N/A Snow Light Snow
6:56 PM 7.5 °F -3.9 °F 2.8 °F 81% 30.17 in 7.0 mi West 6.9 mph - N/A Snow Light Snow
7:15 PM 6.6 °F -6.1 °F 1.9 °F 81% 30.17 in 7.0 mi West 8.1 mph - N/A Snow Light Snow
7:36 PM 6.3 °F -5.4 °F 1.9 °F 82% 30.17 in 5.0 mi West 6.9 mph - N/A Snow Light Snow
7:56 PM 5.9 °F -4.5 °F 1.4 °F 82% 30.18 in 5.0 mi West 5.8 mph - N/A Snow Light Snow
8:15 PM 5.7 °F -6.1 °F 1.2 °F 82% 30.18 in 5.0 mi West 6.9 mph - N/A Snow Light Snow
8:36 PM 5.9 °F -7.0 °F 1.8 °F 83% 30.19 in 7.0 mi West 8.1 mph - N/A Snow Light Snow
8:56 PM 5.5 °F -7.4 °F 0.7 °F 80% 30.19 in 10.0 mi West 8.1 mph - N/A Snow Light Snow
9:15 PM 5.0 °F -8.1 °F 0.5 °F 82% 30.19 in 5.0 mi West 8.1 mph - N/A Snow Light Snow
9:36 PM 5.4 °F -6.5 °F 1.0 °F 82% 30.20 in 4.0 mi West 6.9 mph - N/A Snow Light Snow
9:56 PM 5.5 °F -8.4 °F 1.0 °F 82% 30.20 in 4.0 mi West 9.2 mph - N/A Snow Light Snow
10:15 PM 5.0 °F -10.8 °F 0.5 °F 82% 30.21 in 3.0 mi West 11.5 mph - N/A Snow Light Snow
10:36 PM 4.5 °F -10.7 °F -0.6 °F 80% 30.21 in 4.0 mi West 10.4 mph 17.3 mph N/A Snow Light Snow
10:56 PM 3.9 °F -10.4 °F -1.3 °F 79% 30.22 in 4.0 mi West 9.2 mph - N/A Snow Light Snow
11:15 PM 3.6 °F -11.8 °F -1.7 °F 79% 30.24 in 5.0 mi West 10.4 mph - N/A Snow Light Snow
11:36 PM 2.8 °F -10.7 °F -2.4 °F 79% 30.24 in 7.0 mi West 8.1 mph 16.1 mph N/A Snow Light Snow
11:56 PM 2.3 °F -13.4 °F -3.1 °F 78% 30.24 in 4.0 mi West 10.4 mph - N/A Snow Light Snow